Tracking 17147 objects as of 4-July-2015
HD Live streaming from Space Station

THORAD AGENA D DEB

Track THORAD AGENA D DEB now!
10-day predictions
THORAD AGENA D DEB is classified as:


NORAD ID: 4935
Int'l Code: 1970-025GB
Perigee: 912.6 km
Apogee: 1,011.7 km
Inclination: 99.9 °
Period: 104.2 minutes
Semi major axis: 7333 km
RCS: 0.0346 m2 (small)
Launch date: April 8, 1970
Source: United States (US)

Note: This is SATELLITE DEBRIS
Your satellite tracking list
Your tracking list is empty





NASA's NSSDC Master Catalog

Two Line Element Set (TLE):
1 04935U 70025GB  15184.24043655  .00000304  00000-0  31981-3 0  9995
2 04935 099.8837 055.3770 0067622 037.0076 086.5458 13.82505322263895

Source of the keplerian elements: AFSPC

N2YO: 207